Regional Weather Roundup
Issued by NWS Newport/Morehead, NC

Current Version | Previous Version | Graphics & Text | Print | Product List | Glossary Off
Versions: 1 2 3 4 5 6 7 8 9 10 11 12 13 14 15 16 17 18 19 20 21 22 23 24 25 26 27 28 29 30 31 32 33 34 35 36 37 38 39 40 41 42 43 44 45 46 47 48 49 50

000
ASUS42 KMHX 242125
RWRMHX
WEATHER ROUNDUP FOR EASTERN NORTH CAROLINA
NATIONAL WEATHER SERVICE NEWPORT/MOREHEAD CITY NC
500 PM EDT WED AUG 24 2016

NOTE: "FAIR" INDICATES FEW OR NO CLOUDS BELOW 12,000 FEET
WITH NO SIGNIFICANT WEATHER AND/OR OBSTRUCTIONS TO VISIBILITY

NCZ015>017-031-032-045>047-102-103-242200-
NORTH COAST

CITY           SKY/WX    TMP DP  RH WIND       PRES   REMARKS
EDENTON        SUNNY     84  66  53 E8        30.21F
ELIZABETH CITY MOSUNNY   83  66  56 NE8       30.22F
KITTY HAWK     CLEAR     84  73  70 NE7       30.20F
MANTEO         SUNNY     80  71  72 NE10      30.22F

$$

NCZ045>047-081-094-103-104-242200-
CENTRAL COAST

CITY           SKY/WX    TMP DP  RH WIND       PRES   REMARKS
FRISCO         PTSUNNY   81  71  71 VRB3      30.20F

$$

NCZ095-097-098-100-101-242200-
SOUTHERN COAST

CITY           SKY/WX    TMP DP  RH WIND       PRES   REMARKS
BEAUFORT       CLOUDY    79  71  76 N8        30.19F
CEDAR ISLAND   NOT AVBL
JACKSONVILLE   CLOUDY    84  60  44 N9        30.19F
PINEY ISLAND   NOT AVBL
WILMINGTON     PTSUNNY   85  62  46 NE14      30.19F


$$

NCZ011>013-027>030-043-044-078>080-089-090>093-098-242200-
COASTAL PLAIN

CITY           SKY/WX    TMP DP  RH WIND       PRES   REMARKS
AHOSKIE        NOT AVBL
CLINTON        CLOUDY    85  65  51 NE6       30.21S
ELIZABETHTOWN  CLOUDY    86  63  45 NE3       30.20S
GOLDSBORO      CLOUDY    85  61  44 NE9       30.19F
GREENVILLE     PTSUNNY   86  61  42 N8        30.21F
HAVELOCK       PTSUNNY   84  68  58 NE7       30.20F
KENANSVILLE    NOT AVBL
KINSTON        CLOUDY    84  61  45 N7        30.21F
NEW BERN       PTSUNNY   85  62  46 VRB6      30.20F
RICHLANDS      MOSUNNY   83  62  49 N7        30.20F
ROCKY MOUNT    MOSUNNY   84  64  50 E5        30.22F
WASHINGTON     MOSUNNY   82  60  46 NE5       30.21F
WHITEVILLE     CLOUDY    84  64  50 N5        30.19S

$$

AMZ130-135-150-152-154-156-158-170-250-252-270-ANZ085-086-088-633-658-670-242200-
MARINE OBSERVATIONS

STATION/POSITION TIME  TEMP    WIND        PRES    WAVE   SWELL
                       AIR SEA DIR/SP/G            HT/PER HT/PER
                 (UTC) (F)     (DEG/KT/KT) (MB)    (FT/S) (FT/S)
CHESAPEAKE LIGHT NOT AVBL
64 E VA BEACH    2050   79 82   70/  8/ 10 1023.2    3/11   2/11
DUCK             2100   78 79   20/  9/  9 1022.6
2 E DUCK         2011      77                N/A     2/12
OREGON INLET     2100   80 78   20/  8/ 11 1022.8
13E OREGON INLT  2100      80                N/A     3/12   2/12
HATTERAS CG      2100   80 79   20/  7/ 10 1022.3
DIAMOND BUOY     2050   81 85   90/ 10/ 12 1022.5    3/ 5   3/ 5
CAPE LOOKOUT     2100   79      10/ 11/ 13 1021.9
BEAUFORT LAB     2100   79 81   20/  7/  9 1021.8
30 SE NEW RVR IN 2108   81 85   30/ 12/ 16 1021.9
30 SE NEW RVR IN 2025      84                N/A     3/ 5
27 SE WRIGHTSVLE 2108   81 84   10/ 10/ 14 1022.1
5 SE WRIGHTSVLE  2108   81 83   80/ 10/ 14 1023.2
225 S CAPE HAT   2050   82 85   50/ 14/ 17 1019.5    5/11   3/11
41 SE CHARLESTON 2050   82 84   40/ 17/ 19 1021.2    5/ 8   2/ 8

$$




USA.gov is the U.S. government's official web portal to all federal, state and local government web resources and services.